Temp
14 16 15 15 15 12 12 13 12 14 14 13 12 11 10 10 9 9 8 8 8 8 7 7 7 7 7 6 6 6 6 6 5 3 3 2 2 1 0 -1 -2 -4 -5 -5
16 16 15 16 15 13 13 14 14 14 14 14 14 11 10 9 8 8 7 7 7 7 7 6 6 6 6 5 5 5 5 4 3 2 2 2 1 -0 -2 -3 -4 -5 -6 -6
13 16 15 13 14 14 14 14 14 12 13 11 10 10 10 9 8 8 7 7 6 6 6 5 5 5 5 5 4 4 3 3 3 2 1 0 -1 -2 -3 -4 -6 -6 -6 -7
8 12 9 14 15 16 16 15 13 15 12 12 12 11 10 10 9 8 7 7 6 6 5 5 4 4 4 3 3 3 3 2 1 0 -1 -2 -3 -4 -5 -6 -6 -7 -7 -7
8 9 12 15 16 17 16 15 15 13 12 11 11 10 9 10 10 9 7 7 6 6 5 4 4 4 4 3 3 2 2 1 -0 -1 -2 -3 -4 -5 -6 -6 -7 -7 -8 -8
6 10 11 12 16 19 17 14 12 12 10 9 11 8 6 8 9 8 7 6 6 5 4 4 4 3 3 3 2 1 1 -0 -1 -2 -3 -4 -5 -6 -7 -7 -7 -8 -8 -9
5 9 10 13 16 18 14 11 12 13 11 11 11 10 9 8 8 7 7 6 5 4 4 4 3 3 2 2 1 0 -1 -2 -3 -4 -5 -6 -6 -7 -7 -7 -8 -8 -8 -9
6 6 11 16 16 15 14 16 14 12 11 11 12 10 9 8 7 6 5 5 4 4 3 2 2 2 2 1 -0 -1 -2 -3 -3 -5 -5 -6 -7 -7 -7 -8 -8 -8 -9 -9
9 9 13 16 17 18 18 18 13 13 11 12 11 9 8 7 6 6 5 4 4 4 2 1 1 1 1 0 -1 -2 -3 -3 -4 -5 -6 -7 -7 -7 -8 -8 -8 -9 -9 -10
12 13 14 17 18 17 18 18 17 15 13 12 10 8 7 6 6 5 4 4 3 3 2 1 0 0 0 -0 -1 -2 -3 -4 -5 -6 -7 -7 -7 -8 -8 -9 -9 -9 -10 -10
11 13 15 16 17 17 17 17 16 13 13 13 11 8 8 6 5 5 4 3 3 3 2 1 0 0 -0 -1 -2 -3 -4 -5 -5 -6 -7 -7 -8 -8 -9 -9 -9 -10 -10 -10
10 13 12 15 17 17 17 16 16 14 10 10 12 9 7 6 6 5 4 3 2 2 1 1 0 -0 -1 -2 -2 -3 -4 -5 -6 -6 -7 -8 -8 -8 -9 -9 -10 -10 -10 -11
11 11 13 16 15 17 17 16 15 14 14 11 8 9 7 6 5 4 4 3 2 2 1 1 -0 -1 -2 -2 -3 -4 -4 -5 -6 -7 -7 -8 -9 -9 -9 -10 -10 -10 -10 -11
12 11 14 13 13 16 17 15 14 13 12 11 9 7 7 6 5 4 3 3 2 1 0 -0 -1 -2 -2 -4 -4 -4 -5 -6 -6 -7 -8 -8 -9 -9 -10 -10 -11 -11 -11 -12
12 12 12 13 13 13 14 14 12 11 10 9 8 8 7 5 4 4 3 2 1 1 -0 -1 -1 -2 -3 -4 -4 -4 -5 -6 -7 -8 -9 -9 -10 -10 -10 -11 -11 -11 -12 -12
11 11 11 12 11 12 13 12 12 10 9 8 8 7 6 5 4 3 2 2 2 0 -1 -1 -2 -3 -4 -5 -5 -5 -6 -7 -7 -9 -9 -10 -10 -10 -11 -11 -12 -12 -12 -13
9 10 11 12 10 11 13 14 13 12 10 9 7 6 5 5 4 2 1 1 1 0 -1 -1 -2 -3 -4 -5 -6 -6 -6 -7 -9 -9 -9 -10 -10 -11 -12 -12 -12 -13 -13 -14
9 10 10 11 12 10 10 11 11 11 10 8 7 6 5 5 4 2 1 -0 -1 -1 -2 -2 -3 -4 -5 -6 -6 -6 -7 -8 -9 -9 -10 -11 -11 -12 -12 -13 -13 -13 -14 -14
10 10 10 11 12 12 11 11 11 11 9 8 7 6 5 4 4 2 0 -1 -1 -1 -2 -3 -4 -5 -5 -6 -7 -7 -8 -8 -9 -10 -10 -11 -12 -12 -12 -13 -14 -15 -14 -15
9 9 9 10 11 12 11 11 10 9 8 7 6 5 4 3 2 2 -0 -1 -1 -2 -3 -3 -4 -5 -6 -7 -7 -8 -8 -9 -10 -10 -10 -11 -12 -12 -13 -13 -14 -14 -15 -15
10 11 10 10 10 11 11 12 11 9 8 7 6 5 4 2 1 1 -1 -2 -3 -4 -4 -4 -6 -6 -7 -7 -8 -8 -9 -9 -10 -11 -11 -11 -11 -12 -13 -13 -14 -14 -14 -15
9 9 9 9 10 10 10 11 10 9 7 5 5 5 3 1 -0 -1 -1 -1 -2 -4 -5 -5 -6 -7 -7 -8 -8 -9 -9 -10 -11 -11 -11 -11 -12 -13 -13 -13 -14 -14 -14 -15
9 8 9 9 10 10 8 8 8 9 7 6 5 4 2 1 0 -0 -2 -4 -4 -4 -6 -6 -7 -7 -7 -8 -9 -9 -9 -10 -11 -11 -11 -12 -13 -13 -13 -14 -14 -14 -14 -14
6 9 8 9 10 9 8 6 6 5 6 4 4 2 2 0 -2 -2 -2 -2 -5 -5 -6 -7 -7 -7 -8 -9 -9 -9 -10 -11 -11 -11 -12 -12 -13 -14 -14 -14 -14 -14 -14 -15
4 4 7 9 8 7 7 5 4 3 3 3 1 -0 -0 -0 1 -2 -3 -4 -5 -6 -7 -7 -7 -8 -9 -9 -9 -10 -11 -11 -11 -12 -12 -13 -14 -14 -14 -14 -14 -15 -15 -15
2 2 2 2 6 7 6 5 3 2 2 0 -1 -1 -1 -2 -4 -3 -4 -5 -6 -7 -8 -7 -8 -9 -9 -10 -10 -11 -11 -11 -11 -12 -13 -13 -14 -14 -15 -14 -15 -15 -15 -15
-1 -1 -0 -1 1 0 1 3 3 2 1 1 -0 -3 -4 -4 -4 -4 -5 -5 -6 -7 -7 -8 -9 -9 -9 -10 -10 -11 -11 -11 -12 -13 -13 -14 -14 -15 -15 -15 -15 -15 -15 -16
Height
1511 1508 1512 1513 1516 1523 1527 1524 1535 1526 1529 1529 1527 1529 1534 1537 1539 1540 1543 1545 1547 1548 1549 1552 1554 1557 1559 1563 1567 1570 1571 1572 1573 1573 1573 1573 1572 1571 1569 1567 1565 1563 1561 1559
1508 1505 1509 1511 1510 1515 1517 1518 1519 1521 1522 1516 1520 1528 1533 1536 1538 1540 1543 1545 1548 1550 1551 1554 1556 1559 1562 1565 1567 1570 1570 1571 1572 1572 1572 1571 1570 1569 1567 1564 1562 1561 1559 1558
1518 1504 1508 1523 1510 1510 1509 1508 1510 1524 1511 1512 1519 1522 1525 1531 1535 1537 1540 1543 1548 1551 1552 1555 1558 1561 1563 1566 1568 1569 1571 1571 1572 1572 1571 1570 1568 1567 1565 1563 1561 1559 1558 1556
1528 1516 1541 1505 1493 1494 1498 1499 1501 1501 1505 1507 1510 1519 1525 1528 1529 1535 1538 1543 1547 1551 1554 1557 1559 1562 1564 1566 1568 1570 1570 1571 1571 1570 1569 1568 1567 1565 1564 1562 1560 1557 1555 1553
1528 1527 1509 1496 1490 1492 1496 1497 1492 1496 1502 1508 1514 1521 1529 1529 1530 1531 1536 1542 1546 1551 1554 1557 1560 1562 1565 1566 1568 1569 1569 1570 1570 1569 1568 1567 1566 1564 1562 1562 1560 1557 1554 1551
1528 1521 1521 1498 1484 1483 1486 1503 1490 1489 1499 1504 1510 1525 1524 1526 1528 1532 1537 1542 1546 1550 1554 1557 1560 1562 1565 1566 1567 1568 1568 1569 1568 1567 1566 1565 1564 1563 1562 1561 1559 1556 1552 1550
1524 1516 1505 1484 1480 1481 1505 1503 1484 1486 1491 1497 1501 1503 1511 1522 1528 1532 1536 1541 1546 1550 1553 1556 1559 1562 1564 1565 1566 1567 1567 1567 1567 1566 1565 1564 1563 1562 1562 1560 1557 1553 1550 1548
1516 1520 1510 1478 1479 1487 1482 1479 1482 1487 1489 1496 1500 1504 1510 1518 1524 1530 1535 1540 1545 1548 1552 1555 1558 1561 1562 1564 1565 1565 1565 1565 1565 1564 1563 1563 1562 1561 1560 1558 1555 1552 1550 1547
1492 1493 1475 1475 1474 1475 1476 1476 1481 1484 1490 1494 1499 1505 1511 1517 1523 1529 1534 1539 1544 1547 1551 1555 1557 1559 1560 1562 1563 1564 1563 1563 1563 1562 1562 1561 1560 1559 1558 1555 1553 1550 1548 1546
1480 1473 1472 1472 1474 1474 1475 1476 1479 1482 1487 1493 1498 1504 1511 1518 1524 1528 1533 1538 1542 1547 1550 1553 1556 1558 1559 1560 1561 1561 1561 1561 1561 1561 1560 1560 1559 1557 1555 1553 1551 1549 1547 1544
1472 1468 1469 1469 1470 1471 1474 1476 1479 1484 1487 1491 1496 1503 1506 1514 1521 1527 1531 1537 1541 1545 1549 1552 1555 1557 1558 1559 1558 1559 1559 1560 1559 1558 1558 1557 1556 1554 1553 1551 1549 1547 1545 1542
1476 1471 1471 1467 1463 1468 1470 1473 1477 1481 1489 1494 1495 1498 1506 1512 1518 1523 1529 1535 1539 1544 1548 1551 1553 1556 1557 1557 1556 1557 1557 1557 1557 1557 1556 1555 1554 1552 1551 1549 1548 1546 1543 1541
1472 1469 1467 1464 1464 1464 1466 1469 1474 1478 1483 1488 1498 1500 1505 1509 1516 1522 1528 1534 1538 1541 1546 1549 1552 1553 1555 1555 1555 1555 1555 1555 1555 1555 1554 1553 1552 1551 1549 1547 1545 1543 1540 1539
1468 1467 1463 1466 1469 1465 1465 1468 1473 1479 1483 1487 1493 1501 1506 1510 1516 1520 1525 1532 1537 1540 1543 1547 1550 1552 1552 1553 1552 1553 1552 1553 1552 1552 1551 1550 1550 1549 1547 1545 1542 1540 1538 1536
1463 1465 1466 1463 1461 1467 1463 1465 1471 1476 1480 1487 1492 1496 1503 1508 1514 1518 1522 1529 1535 1539 1542 1545 1548 1550 1550 1551 1550 1550 1550 1550 1550 1550 1549 1548 1548 1547 1545 1543 1540 1538 1536 1534
1459 1462 1462 1458 1460 1457 1459 1465 1467 1473 1479 1483 1487 1493 1500 1507 1512 1517 1521 1525 1530 1535 1540 1542 1545 1547 1548 1548 1548 1548 1548 1548 1547 1547 1547 1546 1545 1544 1542 1540 1538 1535 1533 1529
1457 1460 1462 1459 1458 1455 1455 1457 1459 1465 1472 1478 1484 1490 1496 1503 1510 1516 1520 1524 1530 1535 1539 1540 1543 1544 1546 1546 1546 1545 1545 1545 1545 1544 1544 1543 1542 1541 1540 1538 1536 1533 1530 1527
1453 1454 1456 1454 1452 1455 1455 1457 1460 1464 1468 1474 1481 1487 1494 1501 1506 1512 1519 1523 1528 1533 1536 1538 1540 1541 1543 1544 1544 1543 1543 1542 1542 1542 1541 1540 1539 1538 1537 1535 1532 1529 1527 1524
1439 1442 1444 1447 1448 1450 1452 1455 1459 1463 1466 1471 1477 1484 1492 1498 1505 1511 1516 1520 1525 1529 1533 1536 1538 1539 1540 1541 1542 1542 1541 1540 1539 1538 1538 1537 1537 1535 1534 1531 1528 1525 1523 1520
1431 1433 1436 1440 1443 1444 1448 1451 1456 1460 1465 1471 1477 1484 1491 1498 1505 1509 1516 1520 1524 1529 1531 1533 1535 1536 1537 1539 1540 1540 1538 1538 1537 1536 1535 1535 1534 1532 1531 1528 1525 1522 1519 1517
1426 1426 1428 1432 1436 1438 1441 1444 1450 1456 1461 1467 1473 1481 1488 1496 1503 1509 1514 1518 1523 1526 1528 1531 1533 1534 1535 1536 1537 1537 1536 1535 1535 1533 1532 1532 1531 1530 1528 1525 1522 1518 1516 1513
1419 1419 1419 1423 1426 1431 1435 1440 1443 1449 1456 1463 1470 1478 1487 1493 1500 1507 1514 1518 1521 1524 1527 1529 1530 1532 1533 1534 1534 1534 1533 1533 1532 1531 1529 1529 1528 1527 1525 1523 1519 1516 1513 1510
1411 1411 1411 1414 1418 1423 1430 1435 1439 1444 1450 1458 1467 1473 1481 1488 1495 1501 1508 1514 1519 1522 1525 1527 1528 1530 1531 1531 1531 1530 1530 1530 1529 1528 1527 1527 1526 1524 1522 1520 1516 1513 1511 1508
1404 1402 1404 1407 1413 1418 1423 1430 1437 1443 1450 1460 1468 1475 1477 1485 1494 1502 1509 1514 1518 1520 1523 1525 1526 1528 1529 1529 1528 1528 1528 1527 1526 1525 1525 1525 1523 1522 1520 1517 1514 1511 1508 1505
1402 1400 1399 1400 1404 1412 1416 1423 1433 1442 1451 1460 1468 1477 1482 1487 1493 1498 1506 1511 1515 1518 1521 1523 1525 1526 1527 1527 1526 1526 1525 1524 1523 1523 1523 1522 1521 1519 1517 1514 1512 1509 1506 1503
1402 1400 1400 1403 1399 1404 1412 1419 1427 1438 1447 1456 1464 1472 1479 1486 1493 1499 1504 1508 1512 1516 1519 1521 1522 1523 1524 1525 1524 1524 1523 1522 1521 1522 1521 1520 1518 1516 1514 1512 1509 1507 1504 1501
1402 1400 1399 1403 1403 1409 1412 1416 1423 1433 1444 1450 1459 1470 1476 1482 1491 1496 1501 1505 1509 1513 1517 1519 1520 1521 1522 1523 1522 1522 1522 1521 1520 1520 1518 1517 1515 1513 1511 1509 1507 1504 1502 1499
Wind_Speed
5 5 4 6 5 7 7 6 6 5 9 11 15 15 20 27 26 25 22 21 23 26 27 28 28 28 26 23 19 15 11 8 5 3 3 6 9 12 15 16 18 16 14 14
3 4 7 5 8 10 6 3 4 5 6 5 21 23 25 27 27 27 27 25 25 25 25 24 23 22 20 17 13 8 5 5 2 2 6 9 12 14 16 15 14 12 10 12
4 1 1 5 7 8 5 5 6 6 10 13 14 25 30 30 29 31 29 28 28 27 26 25 22 19 16 13 10 8 6 4 2 5 8 10 12 13 13 12 10 9 11 12
3 3 2 7 5 8 11 8 9 3 12 20 24 23 29 33 34 32 31 31 29 27 25 23 20 17 14 10 8 6 3 0 4 7 10 11 11 11 10 9 9 11 12 14
4 4 4 4 5 6 7 8 7 7 11 21 27 24 18 30 28 31 33 31 28 24 22 21 17 14 12 10 6 2 1 4 6 9 10 9 10 8 7 10 11 13 14 15
2 4 8 7 8 13 4 7 11 23 22 29 29 7 6 31 32 34 33 31 29 26 22 18 15 12 10 7 4 2 3 5 8 9 8 8 7 6 9 11 13 14 14 13
3 4 6 7 9 8 7 7 22 34 37 36 15 9 33 37 35 34 34 32 29 25 20 17 15 12 8 6 3 2 4 6 7 6 6 5 5 7 10 12 14 15 11 10
3 3 5 6 3 9 7 9 27 28 36 29 15 23 43 41 41 38 37 33 28 25 21 18 15 11 9 6 4 3 5 5 4 4 3 3 5 7 11 12 14 15 13 13
8 6 6 4 13 7 15 15 23 31 35 33 29 43 45 44 42 39 36 34 30 25 23 19 15 11 8 6 5 5 5 3 2 3 1 2 5 8 12 12 14 16 15 16
3 4 7 13 11 13 16 15 22 29 38 34 39 43 44 43 41 40 36 34 29 25 23 21 16 12 9 7 6 6 4 2 3 2 1 3 6 10 8 10 14 14 15 17
2 5 6 15 20 18 19 18 25 29 35 35 39 43 44 44 41 38 35 31 27 24 23 19 16 12 9 6 6 5 3 3 3 3 3 4 6 7 6 9 10 12 12 16
4 5 4 16 19 26 24 26 29 33 34 34 39 43 43 42 40 37 34 31 27 24 22 19 15 11 8 6 5 4 4 3 3 4 5 6 7 4 5 8 9 11 12 14
6 17 16 17 25 30 26 31 32 34 34 37 37 39 41 42 39 36 33 30 27 24 21 18 14 10 7 6 5 4 3 2 3 5 6 6 4 6 8 7 9 12 14 15
24 23 10 12 7 32 29 33 33 32 33 35 38 36 39 39 38 35 33 29 25 23 20 16 12 9 7 6 5 4 2 3 4 4 5 5 6 8 10 10 11 11 12 12
22 17 20 26 29 31 34 37 35 34 35 36 36 38 40 40 39 38 34 29 25 22 19 16 12 10 8 8 6 4 3 4 4 4 6 7 8 9 10 9 9 10 13 17
13 21 24 26 19 39 40 38 37 37 36 38 40 40 40 38 39 37 34 30 28 25 21 16 13 10 9 8 7 5 5 6 4 4 6 8 8 8 6 7 9 12 15 17
11 19 26 21 26 40 43 41 40 38 40 41 42 42 42 41 40 37 35 30 24 20 18 15 12 10 9 8 8 6 6 6 7 7 7 8 8 7 8 10 12 13 14 15
29 31 27 17 22 38 38 40 40 39 42 43 43 44 44 43 42 39 34 30 26 22 19 15 11 10 9 8 8 6 6 6 7 7 7 9 8 9 11 13 13 13 13 14
30 29 28 24 18 36 40 39 40 39 43 43 46 46 45 43 39 36 33 30 26 23 20 15 12 10 9 8 8 6 6 6 6 7 8 9 10 11 12 11 10 11 12 15
29 29 28 29 23 35 42 39 41 43 44 45 47 46 45 41 37 34 30 26 22 18 16 13 11 10 9 8 6 6 5 6 6 7 8 10 11 12 12 10 9 11 12 15
16 22 26 29 28 32 43 39 43 45 46 47 47 45 43 39 35 31 30 27 23 20 15 11 10 9 8 6 5 5 5 6 7 7 8 10 11 11 11 11 11 12 13 14
21 20 21 29 31 35 44 46 48 48 48 50 48 42 40 38 35 31 25 21 21 19 15 12 11 10 7 5 5 5 4 5 6 6 7 8 10 11 11 11 11 12 13 14
29 23 22 27 32 37 45 49 49 48 49 48 46 42 40 37 36 33 30 25 19 16 14 12 11 9 5 5 5 4 3 3 5 6 7 8 10 11 11 11 12 12 13 14
30 23 25 33 36 42 48 48 48 48 47 45 40 39 39 39 35 29 22 17 18 16 14 13 10 7 6 5 5 3 2 2 4 6 7 8 9 10 10 11 12 13 14 14
25 21 32 39 43 49 51 50 48 47 46 41 38 39 36 32 26 27 25 19 18 17 15 12 9 7 7 5 4 3 1 2 4 6 7 7 8 9 10 11 12 13 14 14
18 21 32 38 44 51 53 51 50 49 46 44 43 40 35 29 25 22 22 19 18 17 13 10 8 7 5 3 2 1 2 3 5 6 7 8 8 9 10 12 12 13 14 14
15 23 31 34 39 46 50 51 52 51 47 46 45 40 37 31 27 23 21 19 18 15 12 10 8 7 4 3 2 0 2 3 5 5 6 8 9 10 11 12 12 13 13 14
Wind_Direction
188 189 178 198 182 181 184 194 165 219 184 182 190 174 158 149 144 139 135 134 133 132 133 135 137 138 141 143 150 159 171 185 207 234 279 301 313 320 321 322 327 331 334 341
200 185 215 240 222 192 211 166 259 184 250 184 189 151 150 153 149 143 142 141 141 142 144 144 145 145 146 148 152 166 173 158 154 293 314 317 322 324 324 330 340 348 343 339
234 246 205 272 213 208 194 193 171 177 220 147 150 159 163 160 158 155 154 151 152 150 147 145 147 151 152 153 155 158 153 151 266 305 322 329 331 332 341 351 349 339 338 335
179 68 265 239 228 197 204 209 201 162 157 172 166 161 164 170 165 161 162 162 160 157 151 150 151 153 154 155 160 164 165 330 335 336 335 335 340 347 354 349 340 337 336 333
143 187 286 289 255 189 176 258 196 161 135 133 142 141 148 173 175 170 169 169 166 166 163 158 163 166 170 165 172 190 324 341 336 335 339 344 349 358 348 347 343 342 339 335
137 169 207 228 242 236 119 255 179 143 142 139 140 150 196 173 174 169 169 168 165 166 167 170 169 178 178 169 178 216 310 328 331 337 340 348 358 348 357 349 343 336 331 329
146 209 283 250 269 139 139 241 173 162 162 160 172 190 171 173 170 170 168 166 167 169 173 176 174 181 178 178 193 258 304 313 324 340 341 351 348 349 351 346 344 351 356 352
89 95 256 224 131 184 209 170 183 180 169 164 173 161 162 168 166 166 165 165 171 170 170 172 183 197 187 188 205 247 276 296 323 341 343 339 341 347 346 347 356 5 7 6
178 203 234 246 219 229 169 171 181 179 177 175 163 160 166 166 167 167 168 168 174 179 174 177 189 200 200 207 226 251 262 289 328 338 327 336 336 337 343 352 359 1 3 1
108 228 234 236 239 232 193 199 192 191 180 179 166 167 168 168 169 170 172 174 180 184 184 179 187 199 212 214 226 247 255 287 313 288 267 323 328 331 339 349 352 356 352 352
237 288 286 267 235 191 183 189 185 181 181 179 174 173 174 173 174 176 177 181 188 190 189 189 194 203 204 214 227 231 235 264 271 250 276 302 322 322 322 337 343 343 342 340
225 29 319 278 208 184 193 178 183 178 175 179 182 178 179 176 180 182 182 184 186 191 197 197 197 201 205 209 225 217 229 264 262 269 285 306 323 286 316 324 324 328 333 328
335 334 340 320 204 188 197 182 183 183 185 180 181 183 181 181 183 184 185 188 193 195 196 197 196 200 215 215 210 213 226 249 268 282 281 302 317 313 326 322 316 322 321 327
301 311 315 10 240 195 205 184 184 182 183 184 183 183 184 183 182 187 188 192 196 195 196 199 201 208 218 216 213 224 243 278 310 284 264 283 299 313 316 310 321 327 332 327
282 294 283 299 305 220 195 182 178 179 180 181 185 184 187 185 185 187 189 192 196 197 198 200 207 219 216 212 218 231 259 292 308 263 267 287 303 305 302 293 307 319 319 315
303 291 274 297 264 198 188 182 181 179 182 183 185 187 189 191 189 188 190 195 197 198 200 204 210 217 214 215 224 239 268 282 300 284 283 298 303 304 277 290 307 314 321 324
256 253 250 256 210 191 189 195 197 191 189 190 188 188 188 188 186 187 187 192 200 203 204 207 210 212 210 215 228 246 265 286 294 289 294 300 305 289 291 297 306 314 322 323
256 263 266 275 232 200 190 193 192 193 194 192 191 191 190 190 189 189 188 188 191 198 204 206 206 205 204 216 229 244 257 273 277 279 289 295 300 293 298 302 303 307 316 319
267 259 256 262 253 215 202 198 197 198 197 194 193 190 192 192 193 190 191 192 195 199 200 200 203 198 206 224 233 249 268 279 272 274 286 297 304 304 306 306 308 304 315 318
270 268 265 248 245 221 208 204 199 198 194 193 191 189 188 189 191 193 194 195 198 198 202 204 198 200 210 225 243 256 279 286 280 283 294 301 307 311 313 311 304 300 312 316
296 270 254 245 242 226 218 217 206 200 196 196 195 193 190 187 190 194 191 188 186 196 204 196 193 202 214 233 249 265 286 290 285 292 304 308 314 315 316 319 319 320 320 320
290 281 250 242 228 220 214 210 204 200 195 191 191 193 189 186 186 188 198 200 193 197 197 195 200 212 223 241 253 272 293 296 292 307 315 316 318 321 324 330 332 332 331 330
307 279 241 228 221 213 200 198 200 201 196 193 190 191 192 190 191 187 186 189 197 195 194 199 203 213 228 238 252 278 297 289 306 325 319 321 326 326 332 335 335 337 335 335
304 267 230 213 212 203 194 192 192 192 191 187 190 193 190 186 181 188 193 193 188 190 192 199 202 214 225 232 252 275 279 309 333 324 318 325 327 330 332 331 333 335 337 337
294 243 213 201 195 192 191 187 188 184 180 181 183 185 189 189 187 184 187 185 183 186 193 194 200 204 210 222 242 270 314 4 330 323 323 326 329 330 327 331 333 334 336 338
271 220 196 190 196 193 189 186 182 177 179 176 179 184 183 178 180 186 180 182 183 186 191 198 195 199 200 205 239 278 357 346 337 330 332 329 329 328 329 332 332 332 334 335
234 204 191 187 186 184 183 183 178 176 182 182 180 178 180 174 179 182 180 180 182 184 189 190 182 191 190 191 190 347 343 334 330 332 330 324 326 329 330 330 331 333 334 333